Date,TemperatureHighF,TemperatureAvgF,TemperatureLowF,DewpointHighF,DewpointAvgF,DewpointLowF,HumidityHigh,HumidityAvg,HumidityLow,PressureMaxIn,PressureMinIn,WindSpeedMaxMPH,WindSpeedAvgMPH,GustSpeedMaxMPH,PrecipitationSumIn
2013-3-1,70,53,38,34,28,19,69,42,16,30.30,30.11,4,1,9,0.00
2013-3-2,64,52,41,32,29,23,63,44,25,30.44,30.27,7,1,7,0.00
2013-3-3,75,58,40,45,34,26,62,43,23,30.28,29.91,8,2,15,0.00
2013-3-4,86,67,54,57,50,44,84,58,27,29.91,29.66,7,2,10,0.00
2013-3-5,67,58,49,57,28,10,88,38,12,30.35,29.74,9,2,12,0.00
2013-3-6,63,52,42,27,21,17,42,31,18,30.46,30.21,7,1,7,0.00
2013-3-7,74,59,43,54,44,25,73,59,39,30.26,30.08,6,1,9,0.00
2013-3-8,68,61,56,64,57,52,96,87,73,30.13,29.98,5,0,5,0.12
2013-3-9,72,67,62,66,63,59,95,88,78,30.01,29.64,8,1,8,0.02
2013-3-10,67,61,52,64,44,33,95,58,34,30.11,29.66,6,1,9,0.80
2013-3-11,68,53,40,35,29,20,76,45,19,30.18,30.00,8,1,9,0.00
2013-3-12,79,60,44,45,34,29,67,42,18,30.23,30.05,9,1,10,0.00
2013-3-13,76,62,51,44,39,35,66,44,25,30.43,30.23,6,0,7,0.00
2013-3-14,79,64,51,55,48,44,86,60,32,30.36,30.19,10,1,11,0.00
2013-3-15,81,66,53,57,50,42,93,61,26,30.23,29.96,9,2,12,0.00
2013-3-16,84,68,56,62,57,53,93,71,35,29.99,29.70,9,2,11,0.00
2013-3-17,84,72,65,65,62,60,89,72,47,29.78,29.61,6,1,8,0.00
2013-3-18,90,76,66,66,56,44,89,59,21,29.92,29.68,6,1,8,0.00
2013-3-19,84,68,54,65,55,46,75,63,50,29.98,29.82,6,1,7,0.00
2013-3-20,72,62,54,57,48,38,94,64,32,30.22,29.96,9,2,11,0.30
2013-3-21,75,64,53,61,53,41,84,67,52,30.01,29.59,12,1,12,0.00
2013-3-22,84,71,57,67,62,48,96,76,51,29.75,29.60,6,1,9,0.00
2013-3-23,76,62,54,63,54,47,86,75,58,29.78,29.57,4,1,6,0.00
2013-3-24,63,54,45,58,34,24,90,50,26,30.16,29.67,7,2,9,0.00
2013-3-25,59,49,40,27,23,18,51,38,20,30.39,30.16,6,1,8,0.00
2013-3-26,65,51,38,31,25,20,63,38,20,30.50,30.29,4,0,7,0.00
2013-3-27,68,56,40,50,39,26,72,54,37,30.33,30.15,6,1,8,0.00
2013-3-28,74,63,54,60,55,49,86,76,61,30.20,30.10,5,1,7,0.00
2013-3-29,78,68,58,61,58,56,94,73,52,30.16,30.02,4,1,8,0.00
2013-3-30,84,72,65,65,62,59,89,72,47,30.08,29.84,6,1,8,0.00
2013-3-31,78,71,66,67,64,61,89,80,65,29.93,29.79,6,1,8,0.02